CDG121 ZSQD-ZHHH

Flight info

Callsign CDG121
Flight time 1h 22m
Altitude 34100
Route WFG81D WFG DCT LNY DCT DPX DCT FYG DCT PONUD PONUD5T
Aircraft B38M/M-SDE1FGHILORVWXY/HB1

Departure

Time 2026-04-18 09:37
Airport Qingdao Jiaodong International Airport (ZSQD)

Arrival

Time 2026-04-18 11:00
Airport Wuhan Tianhe International Airport (ZHHH)
Time Latitude Longitude Altitude Speed Heading
2026-04-18 08:57 36.36206 120.08163 38 ft 0 kts 12°
2026-04-18 09:10 36.36199 120.08162 38 ft 3 kts 12°
2026-04-18 09:10 36.36179 120.08156 36 ft 3 kts 12°
2026-04-18 09:10 36.36161 120.08153 38 ft 3 kts 346°
2026-04-18 09:10 36.36157 120.08155 36 ft 2 kts 282°
2026-04-18 09:11 36.36153 120.08177 38 ft 3 kts 282°
2026-04-18 09:11 36.36151 120.08187 38 ft 0 kts 282°
2026-04-18 09:23 36.36153 120.08179 38 ft 3 kts 282°
2026-04-18 09:23 36.36160 120.08140 36 ft 7 kts 282°
2026-04-18 09:23 36.36172 120.08059 39 ft 12 kts 275°
2026-04-18 09:24 36.36162 120.07935 37 ft 17 kts 255°
2026-04-18 09:24 36.36114 120.07793 39 ft 18 kts 210°
2026-04-18 09:24 36.35982 120.07826 39 ft 22 kts 162°
2026-04-18 09:24 36.35826 120.07887 39 ft 25 kts 162°
2026-04-18 09:25 36.35658 120.07953 38 ft 26 kts 162°
2026-04-18 09:25 36.35480 120.08022 36 ft 27 kts 162°
2026-04-18 09:25 36.35295 120.08095 38 ft 29 kts 162°
2026-04-18 09:25 36.35101 120.08171 36 ft 30 kts 163°
2026-04-18 09:26 36.34901 120.08249 37 ft 31 kts 162°
2026-04-18 09:26 36.34696 120.08330 37 ft 31 kts 162°
2026-04-18 09:26 36.34486 120.08411 37 ft 32 kts 162°
2026-04-18 09:26 36.34273 120.08496 35 ft 33 kts 162°
2026-04-18 09:27 36.34139 120.08539 37 ft 14 kts 194°
2026-04-18 09:27 36.34094 120.08434 38 ft 15 kts 252°
2026-04-18 09:27 36.34128 120.08334 38 ft 15 kts 341°
2026-04-18 09:27 36.34173 120.08316 37 ft 0 kts 343°
2026-04-18 09:37 36.34212 120.08301 39 ft 31 kts 342°
2026-04-18 09:37 36.34712 120.08106 37 ft 117 kts 342°
2026-04-18 09:37 36.35724 120.07715 93 ft 179 kts 343°
2026-04-18 09:37 36.36977 120.07251 691 ft 201 kts 346°
2026-04-18 09:38 36.38466 120.07229 1134 ft 229 kts
2026-04-18 09:38 36.39578 120.06274 1202 ft 226 kts 245°
2026-04-18 09:38 36.38144 120.06043 754 ft 266 kts 143°
2026-04-18 09:38 36.36518 120.07403 1127 ft 302 kts 155°
2026-04-18 09:39 36.33802 120.08730 2500 ft 303 kts 161°
2026-04-18 09:39 36.32447 120.09241 3778 ft 297 kts 162°
2026-04-18 09:39 36.30475 120.09965 5166 ft 297 kts 162°
2026-04-18 09:39 36.28536 120.10632 6541 ft 287 kts 165°
2026-04-18 09:40 36.26592 120.10756 8051 ft 277 kts 187°
2026-04-18 09:40 36.24786 120.09993 9325 ft 279 kts 206°
2026-04-18 09:40 36.23271 120.08406 10220 ft 293 kts 231°
2026-04-18 09:40 36.22399 120.06106 11108 ft 303 kts 255°
2026-04-18 09:41 36.22035 120.03506 11996 ft 306 kts 259°
2026-04-18 09:41 36.21651 120.00922 12953 ft 309 kts 259°
2026-04-18 09:41 36.21246 119.98279 13815 ft 313 kts 260°
2026-04-18 09:41 36.21190 119.95530 14267 ft 330 kts 281°
2026-04-18 09:42 36.22077 119.92856 14603 ft 346 kts 306°
2026-04-18 09:42 36.23855 119.90804 15081 ft 356 kts 330°
2026-04-18 09:42 36.26172 119.89680 15621 ft 362 kts 346°
2026-04-18 09:42 36.28595 119.88768 16337 ft 366 kts 344°
2026-04-18 09:43 36.31049 119.87803 16993 ft 372 kts 343°
2026-04-18 09:43 36.33523 119.86828 17671 ft 376 kts 344°
2026-04-18 09:43 36.35954 119.85558 18242 ft 384 kts 328°
2026-04-18 09:43 36.37961 119.83397 18956 ft 385 kts 311°
2026-04-18 09:44 36.39395 119.80568 19490 ft 389 kts 295°
2026-04-18 09:44 36.40560 119.77545 20146 ft 390 kts 296°
2026-04-18 09:44 36.41727 119.74478 20629 ft 395 kts 295°
2026-04-18 09:44 36.42888 119.71376 21227 ft 398 kts 295°
2026-04-18 09:45 36.44051 119.68244 21813 ft 400 kts 295°
2026-04-18 09:45 36.45210 119.65113 22412 ft 402 kts 295°
2026-04-18 09:45 36.46365 119.61988 22987 ft 405 kts 295°
2026-04-18 09:45 36.47543 119.58796 23545 ft 408 kts 295°
2026-04-18 09:46 36.48731 119.55573 24020 ft 411 kts 295°
2026-04-18 09:46 36.49920 119.52342 24559 ft 411 kts 295°
2026-04-18 09:46 36.51108 119.49110 25131 ft 411 kts 295°
2026-04-18 09:46 36.52302 119.45861 25588 ft 414 kts 295°
2026-04-18 09:47 36.53498 119.42603 26104 ft 415 kts 295°
2026-04-18 09:47 36.54700 119.39323 26605 ft 416 kts 295°
2026-04-18 09:47 36.55901 119.36042 27040 ft 419 kts 295°
2026-04-18 09:47 36.57113 119.32728 27484 ft 422 kts 295°
2026-04-18 09:48 36.58331 119.29399 27949 ft 423 kts 295°
2026-04-18 09:48 36.59546 119.26062 28450 ft 424 kts 294°
2026-04-18 09:48 36.60407 119.22564 28876 ft 427 kts 279°
2026-04-18 09:48 36.60454 119.18848 29207 ft 433 kts 263°
2026-04-18 09:49 36.59658 119.15227 29601 ft 438 kts 248°
2026-04-18 09:49 36.58096 119.11951 29972 ft 444 kts 233°
2026-04-18 09:49 36.55917 119.09216 30320 ft 449 kts 219°
2026-04-18 09:49 36.53237 119.07212 30686 ft 452 kts 205°
2026-04-18 09:50 36.50327 119.05717 31040 ft 454 kts 204°
2026-04-18 09:50 36.47377 119.04286 31418 ft 455 kts 202°
2026-04-18 09:50 36.44406 119.02899 31793 ft 456 kts 202°
2026-04-18 09:50 36.41420 119.01532 32141 ft 457 kts 201°
2026-04-18 09:51 36.38439 119.00181 32597 ft 456 kts 202°
2026-04-18 09:51 36.35467 118.98847 33152 ft 452 kts 202°
2026-04-18 09:51 36.32521 118.97528 33681 ft 449 kts 201°
2026-04-18 09:51 36.29581 118.96209 34025 ft 450 kts 201°
2026-04-18 09:52 36.23746 118.93598 34055 ft 447 kts 201°
2026-04-18 09:52 36.17861 118.90968 34053 ft 447 kts 201°
2026-04-18 09:53 36.12043 118.88373 34055 ft 447 kts 201°
2026-04-18 09:53 36.06191 118.85766 34056 ft 447 kts 201°
2026-04-18 09:54 36.00342 118.83165 34066 ft 447 kts 201°
2026-04-18 09:54 35.94490 118.80567 34063 ft 447 kts 201°
2026-04-18 09:55 35.88640 118.77973 34060 ft 446 kts 201°
2026-04-18 09:55 35.82799 118.75388 34069 ft 446 kts 201°
2026-04-18 09:56 35.76950 118.72803 34069 ft 447 kts 201°
2026-04-18 09:56 35.71045 118.70198 34066 ft 453 kts 201°
2026-04-18 09:57 35.65115 118.67586 34071 ft 453 kts 201°
2026-04-18 09:57 35.59175 118.64973 34072 ft 454 kts 201°
2026-04-18 09:58 35.53223 118.62359 34076 ft 454 kts 201°
2026-04-18 09:58 35.47266 118.59747 34074 ft 455 kts 201°
2026-04-18 09:59 35.41313 118.57141 34078 ft 455 kts 201°
2026-04-18 10:00 35.32374 118.53236 34081 ft 455 kts 201°
2026-04-18 10:00 35.26415 118.50638 34084 ft 454 kts 201°
2026-04-18 10:01 35.20457 118.48044 34080 ft 454 kts 201°
2026-04-18 10:01 35.14499 118.45454 34077 ft 455 kts 201°
2026-04-18 10:02 35.08537 118.42865 34081 ft 455 kts 201°
2026-04-18 10:02 35.02683 118.39979 34089 ft 453 kts 206°
2026-04-18 10:03 34.96935 118.36816 34077 ft 453 kts 206°
2026-04-18 10:03 34.91190 118.33710 34078 ft 455 kts 206°
2026-04-18 10:04 34.85363 118.30571 34084 ft 455 kts 206°
2026-04-18 10:04 34.79610 118.27477 34080 ft 455 kts 206°
2026-04-18 10:05 34.73817 118.24366 34081 ft 455 kts 206°
2026-04-18 10:05 34.68026 118.21261 34084 ft 455 kts 206°
2026-04-18 10:06 34.62227 118.18157 34081 ft 455 kts 206°
2026-04-18 10:06 34.56423 118.15054 34076 ft 455 kts 206°
2026-04-18 10:07 34.50630 118.11962 34069 ft 456 kts 206°
2026-04-18 10:07 34.44811 118.08862 34079 ft 456 kts 206°
2026-04-18 10:08 34.39001 118.05770 34077 ft 457 kts 206°
2026-04-18 10:08 34.33174 118.02674 34080 ft 458 kts 206°
2026-04-18 10:09 34.27712 117.98885 34069 ft 450 kts 227°
2026-04-18 10:09 34.23829 117.92994 34075 ft 449 kts 235°
2026-04-18 10:10 34.20146 117.86959 34079 ft 449 kts 236°
2026-04-18 10:10 34.16478 117.80859 34079 ft 449 kts 236°
2026-04-18 10:11 34.12790 117.74719 34077 ft 449 kts 236°
2026-04-18 10:11 34.09125 117.68628 34077 ft 448 kts 236°
2026-04-18 10:12 34.05457 117.62540 34077 ft 449 kts 236°
2026-04-18 10:12 34.01808 117.56496 34077 ft 449 kts 236°
2026-04-18 10:13 33.98134 117.50419 34065 ft 449 kts 236°
2026-04-18 10:13 33.94456 117.44346 34069 ft 449 kts 236°
2026-04-18 10:14 33.90770 117.38271 34071 ft 449 kts 236°
2026-04-18 10:14 33.87077 117.32194 34071 ft 449 kts 236°
2026-04-18 10:15 33.83389 117.26135 34073 ft 449 kts 236°
2026-04-18 10:15 33.79692 117.20070 34067 ft 449 kts 236°
2026-04-18 10:16 33.75996 117.14019 34072 ft 449 kts 236°
2026-04-18 10:16 33.72293 117.07967 34067 ft 449 kts 236°
2026-04-18 10:17 33.68592 117.01927 34069 ft 449 kts 236°
2026-04-18 10:17 33.64909 116.95925 34062 ft 449 kts 236°
2026-04-18 10:18 33.61202 116.89896 34061 ft 448 kts 236°
2026-04-18 10:18 33.57496 116.83878 34064 ft 449 kts 236°
2026-04-18 10:19 33.53778 116.77850 34062 ft 450 kts 236°
2026-04-18 10:19 33.50058 116.71829 34062 ft 450 kts 236°
2026-04-18 10:20 33.46334 116.65812 34062 ft 450 kts 236°
2026-04-18 10:20 33.42607 116.59798 34058 ft 450 kts 236°
2026-04-18 10:21 33.38876 116.53790 34056 ft 451 kts 236°
2026-04-18 10:21 33.35124 116.47756 34061 ft 451 kts 236°
2026-04-18 10:22 33.31375 116.41738 34060 ft 451 kts 236°
2026-04-18 10:22 33.27630 116.35736 34061 ft 448 kts 236°
2026-04-18 10:23 33.23911 116.29784 34055 ft 447 kts 236°
2026-04-18 10:23 33.20183 116.23828 34051 ft 448 kts 236°
2026-04-18 10:24 33.16443 116.17863 34059 ft 449 kts 236°
2026-04-18 10:24 33.12703 116.11908 34058 ft 449 kts 236°
2026-04-18 10:25 33.08992 116.06007 34057 ft 446 kts 236°
2026-04-18 10:25 33.05264 116.00090 34053 ft 446 kts 236°
2026-04-18 10:26 33.01539 115.94187 34049 ft 446 kts 236°
2026-04-18 10:26 32.98427 115.89260 34057 ft 448 kts 236°
2026-04-18 10:27 32.94046 115.82334 34036 ft 448 kts 236°
2026-04-18 10:27 32.91004 115.77534 33551 ft 430 kts 236°
2026-04-18 10:27 32.89209 115.74709 32948 ft 428 kts 235°
2026-04-18 10:28 32.87103 115.72175 32297 ft 435 kts 222°
2026-04-18 10:28 32.84729 115.69917 31691 ft 438 kts 223°
2026-04-18 10:28 32.82371 115.67614 31082 ft 441 kts 223°
2026-04-18 10:28 32.79985 115.65310 30482 ft 443 kts 222°
2026-04-18 10:29 32.77579 115.62997 29848 ft 447 kts 223°
2026-04-18 10:29 32.75151 115.60666 29134 ft 450 kts 222°
2026-04-18 10:29 32.72717 115.58333 28450 ft 451 kts 222°
2026-04-18 10:29 32.70266 115.55985 27774 ft 453 kts 222°
2026-04-18 10:30 32.67808 115.53631 27118 ft 455 kts 222°
2026-04-18 10:30 32.65334 115.51265 26475 ft 457 kts 222°
2026-04-18 10:30 32.62854 115.48894 25841 ft 460 kts 222°
2026-04-18 10:30 32.60359 115.46511 25223 ft 461 kts 222°
2026-04-18 10:31 32.57866 115.44132 24628 ft 459 kts 222°
2026-04-18 10:31 32.55391 115.41771 24045 ft 456 kts 222°
2026-04-18 10:31 32.52926 115.39422 23450 ft 452 kts 222°
2026-04-18 10:31 32.50485 115.37097 22769 ft 449 kts 222°
2026-04-18 10:32 32.48061 115.34791 22105 ft 444 kts 222°
2026-04-18 10:32 32.45663 115.32510 21453 ft 440 kts 222°
2026-04-18 10:32 32.43282 115.30248 20818 ft 437 kts 221°
2026-04-18 10:32 32.40917 115.28001 20195 ft 433 kts 221°
2026-04-18 10:33 32.38578 115.25781 19584 ft 429 kts 221°
2026-04-18 10:33 32.36255 115.23579 18984 ft 426 kts 221°
2026-04-18 10:33 32.33956 115.21399 18399 ft 422 kts 221°
2026-04-18 10:33 32.31678 115.19241 17985 ft 419 kts 221°
2026-04-18 10:34 32.29402 115.17087 17570 ft 417 kts 221°
2026-04-18 10:34 32.27145 115.14953 17182 ft 415 kts 221°
2026-04-18 10:34 32.24895 115.12826 16771 ft 413 kts 221°
2026-04-18 10:34 32.22663 115.10716 16384 ft 410 kts 220°
2026-04-18 10:35 32.20435 115.08613 16004 ft 408 kts 220°
2026-04-18 10:35 32.18224 115.06527 15625 ft 406 kts 220°
2026-04-18 10:35 32.16022 115.04451 15260 ft 403 kts 220°
2026-04-18 10:35 32.13835 115.02391 14876 ft 401 kts 220°
2026-04-18 10:36 32.11657 115.00340 14513 ft 399 kts 220°
2026-04-18 10:36 32.09493 114.98303 14164 ft 397 kts 220°
2026-04-18 10:36 32.07340 114.96278 13814 ft 395 kts 220°
2026-04-18 10:36 32.05200 114.94267 13432 ft 393 kts 220°
2026-04-18 10:37 32.03069 114.92265 13041 ft 390 kts 220°
2026-04-18 10:37 32.00953 114.90279 12577 ft 387 kts 220°
2026-04-18 10:37 31.98859 114.88314 12072 ft 383 kts 219°
2026-04-18 10:37 31.96785 114.86369 11583 ft 379 kts 219°
2026-04-18 10:38 31.94756 114.84468 11109 ft 376 kts 219°
2026-04-18 10:38 31.92724 114.82566 10631 ft 372 kts 219°
2026-04-18 10:38 31.90705 114.80675 10165 ft 370 kts 219°
2026-04-18 10:38 31.88702 114.78802 9692 ft 367 kts 219°
2026-04-18 10:39 31.86719 114.76948 9436 ft 357 kts 219°
2026-04-18 10:39 31.84812 114.75166 9346 ft 343 kts 219°
2026-04-18 10:39 31.82979 114.73454 9244 ft 330 kts 219°
2026-04-18 10:39 31.81212 114.71805 9143 ft 318 kts 219°
2026-04-18 10:40 31.79508 114.70215 9038 ft 307 kts 219°
2026-04-18 10:40 31.77857 114.68675 8806 ft 301 kts 219°
2026-04-18 10:40 31.76222 114.67151 8487 ft 298 kts 219°
2026-04-18 10:40 31.74616 114.65654 8300 ft 291 kts 219°
2026-04-18 10:41 31.73054 114.64199 8178 ft 282 kts 219°
2026-04-18 10:41 31.71539 114.62789 8047 ft 273 kts 219°
2026-04-18 10:41 31.70073 114.61424 7919 ft 265 kts 219°
2026-04-18 10:41 31.68645 114.60096 7785 ft 257 kts 219°
2026-04-18 10:42 31.67266 114.58814 7654 ft 249 kts 219°
2026-04-18 10:42 31.65919 114.57565 7428 ft 246 kts 217°
2026-04-18 10:42 31.64372 114.56723 7089 ft 249 kts 191°
2026-04-18 10:42 31.62647 114.56466 6784 ft 250 kts 187°
2026-04-18 10:43 31.60910 114.56251 6449 ft 252 kts 186°
2026-04-18 10:43 31.59160 114.56053 6139 ft 252 kts 185°
2026-04-18 10:43 31.57432 114.55869 5967 ft 246 kts 185°
2026-04-18 10:43 31.55755 114.55698 5842 ft 239 kts 185°
2026-04-18 10:44 31.54105 114.55534 5719 ft 237 kts 185°
2026-04-18 10:44 31.52463 114.55373 5587 ft 236 kts 185°
2026-04-18 10:44 31.50828 114.55215 5461 ft 236 kts 185°
2026-04-18 10:44 31.49193 114.55057 5342 ft 235 kts 185°
2026-04-18 10:45 31.47575 114.54902 5215 ft 234 kts 185°
2026-04-18 10:45 31.45953 114.54747 5103 ft 233 kts 185°
2026-04-18 10:45 31.44339 114.54593 4985 ft 232 kts 185°
2026-04-18 10:45 31.42736 114.54439 4937 ft 231 kts 185°
2026-04-18 10:46 31.41136 114.54286 4940 ft 231 kts 185°
2026-04-18 10:46 31.39533 114.54133 4936 ft 232 kts 185°
2026-04-18 10:46 31.37926 114.53979 4928 ft 232 kts 184°
2026-04-18 10:46 31.36315 114.53825 4939 ft 232 kts 185°
2026-04-18 10:47 31.34705 114.53672 4931 ft 232 kts 185°
2026-04-18 10:47 31.33098 114.53519 4933 ft 233 kts 185°
2026-04-18 10:47 31.31484 114.53365 4935 ft 233 kts 185°
2026-04-18 10:47 31.29875 114.53212 4930 ft 232 kts 185°
2026-04-18 10:48 31.28266 114.53059 4939 ft 231 kts 185°
2026-04-18 10:48 31.26661 114.52906 4937 ft 232 kts 185°
2026-04-18 10:48 31.25051 114.52752 4935 ft 233 kts 185°
2026-04-18 10:48 31.23444 114.52522 4878 ft 233 kts 188°
2026-04-18 10:49 31.21830 114.52256 4639 ft 236 kts 187°
2026-04-18 10:49 31.20225 114.51997 4375 ft 236 kts 187°
2026-04-18 10:49 31.18610 114.51739 4141 ft 233 kts 187°
2026-04-18 10:49 31.17039 114.51490 3907 ft 224 kts 187°
2026-04-18 10:50 31.15499 114.51246 3644 ft 217 kts 187°
2026-04-18 10:50 31.14062 114.51020 3431 ft 203 kts 187°
2026-04-18 10:50 31.12713 114.50807 3286 ft 191 kts 187°
2026-04-18 10:50 31.11402 114.50600 3146 ft 190 kts 187°
2026-04-18 10:51 31.10092 114.50393 3033 ft 190 kts 188°
2026-04-18 10:51 31.08782 114.50188 2929 ft 189 kts 187°
2026-04-18 10:51 31.07478 114.49981 2907 ft 188 kts 188°
2026-04-18 10:51 31.06187 114.49779 2876 ft 187 kts 188°
2026-04-18 10:52 31.04892 114.49576 2835 ft 188 kts 188°
2026-04-18 10:52 31.03619 114.49251 2783 ft 188 kts 207°
2026-04-18 10:52 31.02552 114.48387 2822 ft 187 kts 216°
2026-04-18 10:52 31.01516 114.47466 2835 ft 188 kts 217°
2026-04-18 10:53 31.00513 114.46492 2821 ft 188 kts 220°
2026-04-18 10:53 30.99530 114.45484 2800 ft 188 kts 220°
2026-04-18 10:53 30.98547 114.44474 2790 ft 189 kts 220°
2026-04-18 10:53 30.97563 114.43462 2802 ft 189 kts 221°
2026-04-18 10:54 30.96577 114.42448 2801 ft 189 kts 220°
2026-04-18 10:54 30.95589 114.41436 2788 ft 189 kts 220°
2026-04-18 10:54 30.94615 114.40441 2801 ft 189 kts 220°
2026-04-18 10:54 30.93631 114.39433 2804 ft 189 kts 220°
2026-04-18 10:55 30.92627 114.38403 2800 ft 189 kts 221°
2026-04-18 10:55 30.91653 114.37402 2799 ft 189 kts 220°
2026-04-18 10:55 30.90682 114.36403 2796 ft 189 kts 220°
2026-04-18 10:55 30.89739 114.35433 2785 ft 180 kts 220°
2026-04-18 10:56 30.88812 114.34479 2803 ft 177 kts 220°
2026-04-18 10:56 30.87892 114.33534 2554 ft 174 kts 220°
2026-04-18 10:56 30.87005 114.32621 2335 ft 167 kts 220°
2026-04-18 10:56 30.86145 114.31735 2141 ft 163 kts 220°
2026-04-18 10:57 30.85335 114.30903 1940 ft 148 kts 220°
2026-04-18 10:57 30.84575 114.30122 1744 ft 143 kts 220°
2026-04-18 10:57 30.83832 114.29358 1567 ft 143 kts 220°
2026-04-18 10:57 30.83090 114.28596 1377 ft 142 kts 220°
2026-04-18 10:58 30.82350 114.27835 1183 ft 142 kts 220°
2026-04-18 10:58 30.81610 114.27075 1011 ft 142 kts 220°
2026-04-18 10:58 30.80872 114.26317 830 ft 142 kts 220°
2026-04-18 10:58 30.80135 114.25553 650 ft 141 kts 221°
2026-04-18 10:59 30.79396 114.24801 446 ft 141 kts 223°
2026-04-18 10:59 30.78661 114.24041 255 ft 141 kts 223°
2026-04-18 10:59 30.77935 114.23294 115 ft 134 kts 222°
2026-04-18 10:59 30.77367 114.22714 111 ft 74 kts 221°
2026-04-18 11:00 30.77101 114.22441 109 ft 33 kts 221°
2026-04-18 11:00 30.77000 114.22246 110 ft 17 kts 249°
2026-04-18 11:00 30.76950 114.22099 111 ft 23 kts 248°
2026-04-18 11:00 30.76897 114.21974 111 ft 18 kts 234°
2026-04-18 11:01 30.76790 114.21861 110 ft 24 kts 222°
2026-04-18 11:01 30.76680 114.21749 110 ft 18 kts 219°
2026-04-18 11:01 30.76571 114.21643 110 ft 23 kts 220°
2026-04-18 11:02 30.76331 114.21393 110 ft 21 kts 221°
2026-04-18 11:02 30.76217 114.21276 110 ft 23 kts 221°
2026-04-18 11:02 30.76092 114.21148 111 ft 25 kts 221°
2026-04-18 11:02 30.76075 114.21038 110 ft 16 kts 313°
2026-04-18 11:03 30.76154 114.20935 110 ft 18 kts 311°
2026-04-18 11:03 30.76246 114.20815 108 ft 21 kts 311°
2026-04-18 11:03 30.76349 114.20680 108 ft 24 kts 311°
2026-04-18 11:03 30.76463 114.20528 109 ft 26 kts 311°
2026-04-18 11:04 30.76589 114.20364 109 ft 28 kts 311°
2026-04-18 11:04 30.76723 114.20187 107 ft 30 kts 311°
2026-04-18 11:04 30.76868 114.19997 106 ft 32 kts 311°
2026-04-18 11:04 30.76969 114.19863 106 ft 14 kts 318°
2026-04-18 11:05 30.77055 114.19852 107 ft 13 kts 14°
2026-04-18 11:05 30.77132 114.19924 108 ft 16 kts 41°
2026-04-18 11:05 30.77220 114.20012 108 ft 18 kts 40°
2026-04-18 11:05 30.77319 114.20115 108 ft 20 kts 41°
2026-04-18 11:06 30.77412 114.20211 109 ft 14 kts 56°
2026-04-18 11:06 30.77390 114.20282 110 ft 10 kts 134°
2026-04-18 11:06 30.77363 114.20356 110 ft 11 kts 63°
2026-04-18 11:06 30.77424 114.20422 110 ft 8 kts 43°
2026-04-18 11:07 30.77445 114.20446 110 ft 0 kts 43°